Zurück zum Katalog

SL-3 R/B

AktivPO
NORAD 7364·ROCKET BODY·🇷🇺 Russia

Gestartet Jul 9, 1974 von Plesetsk Cosmodrome

Loading…

Nächste Überflüge (nächste 24 Stunden)

TLE

AktuellSource: Space-Track

Epoche: Sep 14, 2026, 14:01 UTC

1 07364U 74052B   26257.58418714  .00000238  00000-0  13500-3 0  9993
2 07364  81.2303 118.0596 0049688  15.5403 344.7277 14.06470534675637

Verfolge SL-3 R/B in Echtzeit mit AllMySat

Download on the App Store